Location: Kampung Segan
(3.1399°N, 113.1002°E)
Time: 12:38:08
(UTC+00:00)

MOS 1-B Rocket - Pass Details

Date: 20 October 2025
Orbit: 891 x 1603 km, 99.0° (Epoch: 16 November)

Event Time Altitude Azimuth Distance (km) Brightness Sun altitude
Rises 18:22:05 0° 57° (ENE) 4,755 7.9 -57.0°
Reaches altitude 10° 18:28:06 10° 87° (E) 3,816 7.4 -55.5°
Maximum altitude 18:30:36 11° 104° (ESE) 3,708 7.4 -54.9°
Drops below altitude 10° 18:33:06 10° 120° (ESE) 3,806 7.4 -54.3°
Sets 18:38:59 0° 150° (SSE) 4,725 7.9 -52.9°
